Weather History for KHSE - April, 2012

Change the Weather History Date:

Sunday, April 15, 2012

  Actual Average Record
Temperature  
Mean Temperature 70 °F 59 °F  
Max Temperature 74 °F 66 °F 84 °F (1922)
Min Temperature 65 °F 53 °F 36 °F (1907)
Degree Days  
Heating Degree Days 0 6  
Month to date heating degree days 101 119  
Since 1 July heating degree days 1661 2462  
Cooling Degree Days 5 1  
Month to date cooling degree days 8 6  
Year to date cooling degree days 36 9  
Growing Degree Days 18 (Base 50)    
Moisture  
Dew Point 59 °F    
Average Humidity 73    
Maximum Humidity 84    
Minimum Humidity 61    
Precipitation  
Precipitation 0.00 in 0.11 in 2.20 in (1999)
Month to date precipitation 1.20 1.93  
Year to date precipitation 13.79 15.96  
Snow  
Snow 0.00 in - - ()
Month to date snowfall 0.0  
Since 1 July snowfall T  
Snow Depth 0.00 in    
Sea Level Pressure  
Sea Level Pressure 30.23 in    
Wind  
Wind Speed 14 mph (WSW)    
Max Wind Speed 20 mph    
Max Gust Speed 29 mph    
Visibility 10 miles    
Events      
T = Trace of Precipitation, MM = Missing Value Source: NWS Daily Summary

Daily Weather History Graph

Daily Weather History Graph

Search for Another Location

Airport or City:

Trip Planner

Search our weather history database for the weather conditions in past years. The results will help you decide how hot, cold, wet, or windy it might be!

Date:

Astronomy

Apr. 15, 2012 Rise Set
Actual Time 6:29 AM EDT 7:35 PM EDT
Civil Twilight 6:03 AM EDT 8:01 PM EDT
Nautical Twilight 5:32 AM EDT 8:33 PM EDT
Astronomical Twilight 5:00 AM EDT 9:05 PM EDT
Moon 3:14 AM EDT (4/15) 2:39 PM EDT (4/15)
Length of Visible Light 13h 58m
Length of Day
13h 05m
Waning Crescent, 28% of the Moon is Illuminated
Apr 15
Waning Crescent
Apr 21
New
Apr 29
First Quarter
May 5
Full
May 12
Last Quarter

Hourly Weather History & Observations

Time (EDT) Temp. Dew Point Humidity Pressure Visibility Wind Dir Wind Speed Gust Speed Precip Events Conditions
12:51 AM 64.9 °F 57.9 °F 78% 30.24 in 10.0 mi WSW 12.7 mph - N/A   Clear
1:51 AM 64.9 °F 57.9 °F 78% 30.24 in 10.0 mi WSW 12.7 mph 18.4 mph N/A   Clear
2:51 AM 64.9 °F 57.9 °F 78% 30.22 in 10.0 mi WSW 8.1 mph - N/A   Clear
3:51 AM 64.9 °F 59.0 °F 81% 30.22 in 10.0 mi WSW 9.2 mph - N/A   Clear
4:51 AM 64.9 °F 59.0 °F 81% 30.21 in 10.0 mi WSW 9.2 mph - N/A   Overcast
5:51 AM 64.9 °F 59.0 °F 81% 30.22 in 10.0 mi WSW 9.2 mph - N/A   Mostly Cloudy
6:51 AM 66.0 °F 59.0 °F 78% 30.25 in 10.0 mi WSW 9.2 mph - N/A   Overcast
7:51 AM 66.9 °F 59.0 °F 76% 30.26 in 10.0 mi WSW 12.7 mph - N/A   Mostly Cloudy
8:51 AM 69.1 °F 59.0 °F 70% 30.26 in 10.0 mi WSW 13.8 mph - N/A   Clear
9:51 AM 70.0 °F 59.0 °F 68% 30.26 in 10.0 mi WSW 12.7 mph - N/A   Partly Cloudy
10:51 AM 71.1 °F 59.0 °F 66% 30.26 in 10.0 mi WSW 17.3 mph 23.0 mph N/A   Clear
11:51 AM 72.0 °F 60.1 °F 66% 30.26 in 10.0 mi WSW 16.1 mph 23.0 mph N/A   Clear
12:51 PM 73.0 °F 59.0 °F 61% 30.25 in 10.0 mi WSW 17.3 mph 23.0 mph N/A   Clear
1:51 PM 73.9 °F 60.1 °F 62% 30.24 in 10.0 mi WSW 15.0 mph 23.0 mph N/A   Clear
2:51 PM 73.0 °F 60.1 °F 64% 30.22 in 10.0 mi SW 16.1 mph 24.2 mph N/A   Clear
3:51 PM 73.0 °F 60.1 °F 64% 30.20 in 10.0 mi SW 17.3 mph 25.3 mph N/A   Clear
4:51 PM 72.0 °F 60.1 °F 66% 30.20 in 10.0 mi SW 16.1 mph 27.6 mph N/A   Clear
5:51 PM 71.1 °F 60.1 °F 68% 30.20 in 10.0 mi WSW 13.8 mph 25.3 mph N/A   Clear
6:51 PM 70.0 °F 60.1 °F 71% 30.20 in 10.0 mi SW 16.1 mph 28.8 mph N/A   Clear
7:51 PM 69.1 °F 60.1 °F 73% 30.21 in 10.0 mi WSW 18.4 mph 26.5 mph N/A   Clear
8:51 PM 68.0 °F 60.1 °F 76% 30.23 in 10.0 mi WSW 17.3 mph 25.3 mph N/A   Clear
9:51 PM 69.1 °F 60.1 °F 73% 30.24 in 10.0 mi WSW 16.1 mph 26.5 mph N/A   Clear
10:51 PM 68.0 °F 60.1 °F 76% 30.24 in 10.0 mi WSW 13.8 mph 20.7 mph N/A   Clear
11:51 PM 68.0 °F 60.1 °F 76% 30.22 in 10.0 mi WSW 12.7 mph 23.0 mph N/A   Clear